This demonstration page uses our WeatherBlox Daily Observations layout. Learn more.

Left ArrowRight Arrow

Hourly Observations for July 7, 2018

Temp ( °F °C ) Dew Point ( °F °C ) Humidity (%) Winds ( mph kmh ) Pressure ( in mb ) Visibility ( mi km ) Precip ( " mm )
12:16 am 00:16 Clear 61 16 59 15 94 94 NE 5 7 30.27 1025 10 16.0934 N/A
12:37 am 00:37 Clear 59 15 59 15 100 100 NE 3 6 30.27 1025 10 16.0934 N/A
12:56 am 00:56 Clear 59 15 59 15 100 100 NE 3 6 30.3 1026 10 16.0934 N/A
1:16 am 01:16 Clear 57 14 57 14 100 100 NE 5 7 30.33 1027 10 16.0934 N/A
1:37 am 01:37 Clear 59 15 59 15 100 100 NE 5 7 30.3 1026 10 16.0934 N/A
1:56 am 01:56 Clear 55 13 55 13 100 100 NE 5 7 30.3 1026 10 16.0934 N/A
2:16 am 02:16 Clear 55 13 55 13 100 100 NE 3 6 30.33 1027 10 16.0934 N/A
2:37 am 02:37 Clear 55 13 55 13 100 100 NE 5 7 30.3 1026 10 16.0934 N/A
2:56 am 02:56 Clear 54 12 54 12 100 100 ENE 5 7 30.3 1026 10 16.0934 N/A
3:16 am 03:16 Clear 54 12 54 12 100 100 NE 3 6 30.3 1026 10 16.0934 N/A
3:37 am 03:37 Clear 55 13 55 13 100 100 NE 6 9 30.3 1026 10 16.0934 N/A
3:56 am 03:56 Clear 54 12 54 12 100 100 NNE 7 11 30.3 1026 10 16.0934 N/A
4:16 am 04:16 Clear 54 12 54 12 100 100 NE 6 9 30.3 1026 10 16.0934 N/A
4:37 am 04:37 Clear 54 12 54 12 100 100 NE 6 9 30.3 1026 10 16.0934 N/A
4:56 am 04:56 Clear 54 12 54 12 100 100 NE 5 7 30.3 1026 10 16.0934 N/A
5:16 am 05:16 Clear 54 12 54 12 100 100 NE 3 6 30.3 1026 10 16.0934 N/A
5:37 am 05:37 Clear 52 11 52 11 100 100 NNE 7 11 30.3 1026 10 16.0934 N/A
5:56 am 05:56 Clear 52 11 52 11 100 100 NE 3 6 30.3 1026 10 16.0934 N/A
6:16 am 06:16 Clear 52 11 52 11 100 100 NNE 5 7 30.33 1027 10 16.0934 N/A
6:37 am 06:37 Sunny 52 11 52 11 100 100 NE 3 6 30.33 1027 10 16.0934 N/A
6:56 am 06:56 Sunny 52 11 52 11 100 100 NNE 5 7 30.33 1027 10 16.0934 N/A
7:16 am 07:16 Sunny 54 12 54 12 100 100 NNE 6 9 30.33 1027 10 16.0934 N/A
7:36 am 07:36 Sunny 55 13 55 13 100 100 NNE 5 7 30.33 1027 10 16.0934 N/A
7:56 am 07:56 Sunny 57 14 57 14 100 100 NNE 6 9 30.33 1027 10 16.0934 N/A
8:17 am 08:17 Sunny 59 15 57 14 94 94 ENE 7 11 30.3 1026 10 16.0934 N/A
8:36 am 08:36 Sunny 61 16 59 15 94 94 ENE 7 11 30.3 1026 10 16.0934 N/A
8:56 am 08:56 Sunny 63 17 59 15 88 88 ENE 8 13 30.33 1027 10 16.0934 N/A
9:17 am 09:17 Sunny 63 17 61 16 94 94 ENE 7 11 30.33 1027 10 16.0934 N/A
9:36 am 09:36 Sunny 64 18 61 16 88 88 ENE 8 13 30.33 1027 10 16.0934 N/A
9:56 am 09:56 Sunny 66 19 63 17 88 88 NE 9 15 30.33 1027 10 16.0934 N/A
10:17 am 10:17 Sunny 68 20 63 17 83 83 ENE 9 15 30.33 1027 10 16.0934 N/A
10:36 am 10:36 Sunny 68 20 63 17 83 83 E 9 15 30.33 1027 10 16.0934 N/A
10:56 am 10:56 Sunny 70 21 63 17 78 78 E 13 20 30.33 1027 10 16.0934 N/A
11:17 am 11:17 Sunny 72 22 61 16 69 69 ENE 14 22 30.33 1027 10 16.0934 N/A
11:36 am 11:36 Sunny 72 22 63 17 73 73 E 12 19 30.33 1027 10 16.0934 N/A
11:56 am 11:56 Sunny 72 22 61 16 69 69 E 7 11 30.33 1027 10 16.0934 N/A
12:17 pm 12:17 Sunny 73 23 61 16 65 65 E 10 17 30.33 1027 10 16.0934 N/A
12:36 pm 12:36 Sunny 73 23 61 16 65 65 ENE 10 17 30.3 1026 10 16.0934 N/A
12:57 pm 12:57 Sunny 73 23 61 16 65 65 ENE 10 17 30.3 1026 10 16.0934 N/A
1:16 pm 13:16 Sunny 75 24 61 16 61 61 E 15 24 30.27 1025 10 16.0934 N/A
1:36 pm 13:36 Sunny 75 24 61 16 61 61 E 15 24 30.27 1025 10 16.0934 N/A
1:57 pm 13:57 Sunny 75 24 61 16 61 61 E 10 17 30.27 1025 10 16.0934 N/A
2:16 pm 14:16 Sunny 75 24 63 17 65 65 NE 10 17 30.27 1025 10 16.0934 N/A
2:36 pm 14:36 Sunny 77 25 63 17 61 61 NE 8 13 30.27 1025 10 16.0934 N/A
2:57 pm 14:57 Sunny 77 25 63 17 61 61 ENE 9 15 30.24 1024 10 16.0934 N/A
3:16 pm 15:16 Sunny 77 25 61 16 57 57 ENE 13 20 30.24 1024 10 16.0934 N/A
3:36 pm 15:36 Sunny 77 25 63 17 61 61 ENE 10 17 30.24 1024 10 16.0934 N/A
3:57 pm 15:57 Sunny 77 25 61 16 57 57 E 8 13 30.24 1024 10 16.0934 N/A
4:16 pm 16:16 Sunny 77 25 63 17 61 61 ENE 10 17 30.24 1024 10 16.0934 N/A
4:36 pm 16:36 Sunny 77 25 63 17 61 61 ENE 10 17 30.24 1024 10 16.0934 N/A
4:57 pm 16:57 Sunny 77 25 63 17 61 61 ENE 12 19 30.21 1023 10 16.0934 N/A
5:16 pm 17:16 Sunny 77 25 61 16 57 57 ENE 10 17 30.21 1023 10 16.0934 N/A
5:36 pm 17:36 Sunny 77 25 61 16 57 57 ENE 8 13 30.21 1023 10 16.0934 N/A
5:57 pm 17:57 Sunny 77 25 61 16 57 57 E 8 13 30.21 1023 10 16.0934 N/A
6:16 pm 18:16 Sunny 77 25 61 16 57 57 ENE 8 13 30.21 1023 10 16.0934 N/A
6:36 pm 18:36 Sunny 77 25 61 16 57 57 ENE 9 15 30.21 1023 10 16.0934 N/A
6:57 pm 18:57 Sunny 77 25 61 16 57 57 ENE 7 11 30.21 1023 10 16.0934 N/A
7:16 pm 19:16 Sunny 77 25 59 15 54 54 E 8 13 30.21 1023 10 16.0934 N/A
7:37 pm 19:37 Sunny 75 24 61 16 61 61 ENE 9 15 30.18 1022 10 16.0934 N/A
7:56 pm 19:56 Sunny 75 24 63 17 65 65 ENE 8 13 30.18 1022 10 16.0934 N/A
8:16 pm 20:16 Sunny 73 23 63 17 69 69 NE 5 7 30.18 1022 10 16.0934 N/A
8:37 pm 20:37 Sunny 70 21 63 17 78 78 ENE 5 7 30.21 1023 10 16.0934 N/A
8:56 pm 20:56 Sunny 68 20 63 17 83 83 E 5 7 30.21 1023 10 16.0934 N/A
9:16 pm 21:16 Clear 66 19 63 17 88 88 E 5 7 30.21 1023 10 16.0934 N/A
9:37 pm 21:37 Clear 64 18 63 17 94 94 N N/A 30.21 1023 10 16.0934 N/A
9:56 pm 21:56 Clear 64 18 63 17 94 94 E 3 6 30.24 1024 10 16.0934 N/A
10:16 pm 22:16 Clear 63 17 61 16 94 94 ENE 3 6 30.24 1024 10 16.0934 N/A
10:36 pm 22:36 Clear 61 16 61 16 100 100 N N/A 30.24 1024 10 16.0934 N/A
10:56 pm 22:56 Clear 63 17 61 16 94 94 N N/A 30.24 1024 10 16.0934 N/A
11:17 pm 23:17 Clear 61 16 59 15 94 94 NE 5 7 30.24 1024 10 16.0934 N/A
11:36 pm 23:36 Clear 59 15 59 15 100 100 NE 5 7 30.24 1024 10 16.0934 N/A
11:56 pm 23:56 Clear 59 15 59 15 100 100 NE 3 6 30.24 1024 10 16.0934 N/A

Powered by AerisWeather